STARLINK-4723, 53797

Orbit data source: Space-Track

STARLINK-4723, 53797 is a payload satellite owned by SpaceX/Seattle (US) in LEO that was launched on Sun, 11 Sep 2022 UTC via an FALCON 9 launch vehicle from the Air Force Eastern Test Range (AFETR). Payload-class satellites include a variety of spacecraft equipped with specific instruments for various scientific and technological missions. These include communications satellites like Starlink; space stations such as the ISS; scientific satellites like the Hubble; Earth observation satellites from companies like Planet Labs, Umbra, and HawkEye 360; GPS; miniature CubeSats for education and research; and military/defense satellites.

Loading next visibility...
Identifier
53797, 2022-111AA
Orbit
LEO
Last TLE update
17 hours ago
Origin
Manufacturer
SpaceX/Seattle
Mission
Operational Commercial Communications
Bus & Motor
STARLINK, Unknown motor
Mass
305 kg wet, ~290 kg dry
Launch date (UTC)
2022-09-11 (3 years ago)
Launch vehicle
FALCON 9
Launch site
Air Force Eastern Test Range (AFETR)
Object type
Payload
Rocket body
Debris
Shape & HBR
Box + 1 Pan, 8.86 m
Radar Cross Section
13.562 m², Large (>1 m²)

Expand to show TLE details & history

TLE from 17 hours ago
0 STARLINK-4723
1 53797U 22111AA  25181.72130244  .00000332  00000-0  38939-4 0  9992
2 53797  53.2182 324.8146 0001210  87.6822 272.4308 15.08837421155645
Epoch: 2025-06-30T17:18Z
TLE epoch observation values (Epoch: 2025-06-30T17:18:40.53Z)
Latitude
-0.0001°
Longitude
146.11861°
Altitude
540.613 km
Speed
7.593 km/s
True Right ascension
21h 39m 15s
True Declination
0° 00' 00"
Sunlit
Object was in full shadow at epoch
Visualization orbit readout
Latitude
14.47464°
Longitude
-48.05471°
Altitude
539.66 km
Speed
7.595 km/s
Apparent Right ascension
09h 04m 09s
Apparent Declination
-11° 31' 56"
Sunlit
Object is in daylight
Visualization observer readout
Local Sidereal Time
21:33:44
Azimuth
15.014° NNE
Elevation
-60.872°
Doppler factor
1
Orbital elements
Apogee altitude
540.833 km
Perigee altitude
539.159 km
Semi-major axis
6,918.133 km
Eccentricity
0.00012
Inclination
53.2182°
RAAN
324.8146°
Arg. of periapsis
87.6822°
True anomaly
Unknown
Mean anomaly
272.4308°
Eccentric anomaly
Unknown
Mean motion
3.7719 °/min
Orbital period
95.44 mins
BSTAR
0.000038939
Loading maneuver chart data...
Loading SW <> Apogee altitude chart data...
Loading historical data...
Loading historical data...
Loading historical data...
Loading historical data...
Loading historical data...
Loading historical data...
Loading historical data...

STARLINK-4723 Visibility forecast

Observer location: undefined°, undefined°

Span
Click to sort rows by Start time (UTC) header in descending order
Start Az.
Max El. time (UTC)
Max El. Az.
Max El.
End time (UTC)
End Az.
4 mins2025-07-01 10:57:22.581Z156.209° SSE2025-07-01 10:59:22.581Z121.829° SE16.022°2025-07-01 11:01:22.581Z90.247° ESE
6 mins2025-07-01 12:35:22.581Z243.71° WSW2025-07-01 12:38:22.581Z351.478° N41.433°2025-07-01 12:41:22.581Z43.358° NE
4 mins2025-07-01 14:16:22.581Z312.276° NW2025-07-01 14:18:22.581Z348.204° N16.78°2025-07-01 14:20:22.581Z20.259° NNE
5 mins2025-07-01 17:37:22.581Z346.145° N2025-07-01 17:39:22.581Z27.29° NE21.806°2025-07-01 17:42:22.581Z77.816° E
6 mins2025-07-01 19:16:22.581Z302.416° NW2025-07-01 19:19:22.581Z178.269° S41.5°2025-07-01 19:22:22.581Z140.789° SSE
|